Cotulla, TX

2:50 PM CST on December 04, 2016 (GMT -0600)
Cotulla-La Salle County

Weather History for KCOT - October, 2012

Change the Weather History Date:

Monday, October 22, 2012

  Actual Average Record
Temperature  
Mean Temperature 82 °F -  
Max Temperature 93 °F 81 °F 93 °F (2001)
Min Temperature 71 °F 59 °F 46 °F (1999)
Cooling Degree Days 17    
Growing Degree Days 32 (Base 50)    
Moisture  
Dew Point 68 °F    
Average Humidity 70    
Maximum Humidity 94    
Minimum Humidity 34    
Precipitation  
Precipitation 0.00 in - - ()
Sea Level Pressure  
Sea Level Pressure 29.88 in    
Wind  
Wind Speed 10 mph (SE)    
Max Wind Speed 17 mph    
Max Gust Speed 28 mph    
Visibility 10 miles    
Events      
Averages and records for this station are not official NWS values.
T = Trace of Precipitation, MM = Missing Value Source: NWS Daily Summary

Daily Weather History Graph

Daily Weather History Graph

Search for Another Location

Airport or City:

Trip Planner

Search our weather history database for the weather conditions in past years. The results will help you decide how hot, cold, wet, or windy it might be!

Date:

Astronomy

Oct. 22, 2012 Rise Set
Actual Time 7:42 AM CDT 6:59 PM CDT
Civil Twilight 7:18 AM CDT 7:23 PM CDT
Nautical Twilight 6:50 AM CDT 7:51 PM CDT
Astronomical Twilight 6:23 AM CDT 8:18 PM CDT
Moon 2:38 PM CDT (10/22) 1:04 AM CDT (10/22)
Length of Visible Light 12h 05m
Length of Day
11h 17m
First Quarter, 56% of the Moon is Illuminated
Oct 22
First Quarter
Oct 29
Full
Nov 6
Last Quarter
Nov 13
New
Nov 20
First Quarter

Hourly Weather History & Observations

Time (CDT) Temp. Heat Index Dew Point Humidity Pressure Visibility Wind Dir Wind Speed Gust Speed Precip Events Conditions
12:53 AM 75.9 °F - 69.1 °F 79% 29.87 in 10.0 mi SE 11.5 mph - N/A   Clear
1:53 AM 75.0 °F - 70.0 °F 84% 29.87 in 10.0 mi SE 10.4 mph - N/A   Clear
2:53 AM 73.9 °F - 70.0 °F 87% 29.86 in 10.0 mi SE 10.4 mph - N/A   Clear
3:53 AM 73.9 °F - 70.0 °F 87% 29.87 in 10.0 mi SE 8.1 mph - N/A   Partly Cloudy
4:53 AM 73.0 °F - 70.0 °F 90% 29.86 in 10.0 mi SE 6.9 mph - N/A   Clear
5:53 AM 73.0 °F - 70.0 °F 90% 29.86 in 10.0 mi SE 5.8 mph - N/A   Mostly Cloudy
6:26 AM 71.6 °F - 69.8 °F 94% 29.89 in 10.0 mi SE 8.1 mph - N/A   Partly Cloudy
6:53 AM 72.0 °F - 70.0 °F 93% 29.88 in 10.0 mi SE 8.1 mph - N/A   Clear
7:53 AM 71.6 °F - 69.8 °F 94% 29.91 in 8.0 mi SE 6.9 mph - N/A   Clear
8:51 AM 73.4 °F - 69.8 °F 88% 29.93 in 10.0 mi SE 10.4 mph - N/A   Partly Cloudy
8:53 AM 73.0 °F - 70.0 °F 90% 29.91 in 10.0 mi SE 11.5 mph - N/A   Partly Cloudy
9:09 AM 73.4 °F - 69.8 °F 88% 29.93 in 10.0 mi SE 10.4 mph - N/A   Mostly Cloudy
9:33 AM 73.4 °F - 69.8 °F 88% 29.95 in 10.0 mi SSE 9.2 mph - N/A   Mostly Cloudy
9:53 AM 77.0 °F - 70.0 °F 79% 29.93 in 10.0 mi SSE 9.2 mph 18.4 mph N/A   Mostly Cloudy
10:02 AM 77.0 °F - 69.8 °F 78% 29.95 in 10.0 mi SSE 10.4 mph 18.4 mph N/A   Scattered Clouds
10:53 AM 82.0 °F 84.9 °F 68.0 °F 62% 29.93 in 10.0 mi SSE 10.4 mph 19.6 mph N/A   Clear
11:53 AM 87.1 °F 89.9 °F 66.9 °F 51% 29.93 in 10.0 mi SSE 9.2 mph 17.3 mph N/A   Partly Cloudy
12:53 PM 89.1 °F 90.0 °F 63.0 °F 42% 29.90 in 10.0 mi SSE 15.0 mph 25.3 mph N/A   Clear
1:53 PM 91.9 °F 91.8 °F 61.0 °F 35% 29.86 in 10.0 mi SE 17.3 mph 24.2 mph N/A   Clear
2:53 PM 93.0 °F 93.0 °F 61.0 °F 34% 29.84 in 10.0 mi South 8.1 mph 27.6 mph N/A   Clear
3:53 PM 93.0 °F 93.0 °F 61.0 °F 34% 29.82 in 10.0 mi SSE 13.8 mph 23.0 mph N/A   Clear
4:53 PM 93.0 °F 93.8 °F 62.1 °F 36% 29.81 in 10.0 mi South 13.8 mph 23.0 mph N/A   Clear
5:53 PM 91.9 °F 91.8 °F 61.0 °F 35% 29.81 in 10.0 mi SSE 8.1 mph 18.4 mph N/A   Clear
6:53 PM 90.0 °F 90.3 °F 62.1 °F 39% 29.83 in 10.0 mi SE 10.4 mph - N/A   Scattered Clouds
7:53 PM 86.0 °F 90.1 °F 69.1 °F 57% 29.85 in 10.0 mi SE 15.0 mph 23.0 mph N/A   Clear
8:53 PM 82.0 °F 85.9 °F 70.0 °F 67% 29.86 in 10.0 mi ESE 17.3 mph 23.0 mph N/A   Clear
9:53 PM 80.1 °F 83.2 °F 70.0 °F 71% 29.88 in 10.0 mi SE 15.0 mph 26.5 mph N/A   Clear
10:53 PM 79.0 °F - 70.0 °F 74% 29.90 in 10.0 mi SE 11.5 mph 20.7 mph N/A   Clear
11:53 PM 77.0 °F - 70.0 °F 79% 29.91 in 10.0 mi SE 11.5 mph - N/A   Clear